Weather in Prigorodnyi

Russia / Orenburg Oblast     51°46′02″N   55°16′56″E
temp.,
°C
wind,
m/s
gust,
m/s
humid.,
%
clouds,
%
prec.,
mm/h
press.,
hPa
HPBL,
m
19 january, wed
wed1923:00−11s3894100 0.0 1023132
02:00−14se2396100 0.0 102434
05:00−13se3496100 0.0 102459
08:00−11se3695100 0.0 1025109
11:00−10sse4894100 0.1 1025199
14:00−8sse4789100 0.0 1026275
17:00−8se3791100 0.0 1026196
20:00−13se349396 0.0 102746
20 january, thu
thu2023:00−14se3692100 0.0 102662
02:00−14ese3590100 0.0 102667
05:00−15ese2491100 0.0 102757
08:00−14ese4690100 0.0 1027113
11:00−12ese4788100 0.0 1026184
14:00−11ese468548 0.0 1026198
17:00−13ese359098 0.0 102576
20:00−17e359326 0.0 102551
21 january, fri
fri2123:00−18e349329 0.0 102547
02:00−18e24956 0.0 102544
05:00−19e349616 0.0 102547
08:00−18ene3495100 0.0 102556
11:00−15e249084 0.0 1025101
14:00−12ese358464 0.0 1025172
17:00−13e349196 0.0 102551
20:00−16e3592100 0.0 102662
22 january, sat
sat2223:00−15e3790100 0.0 1026113
02:00−13ese3790100 0.0 1026175
05:00−13ese369196 0.0 1026129
08:00−15e359085 0.0 102676
11:00−13ese4887100 0.0 1027175
14:00−11ese4785100 0.0 1027215
17:00−12e23925 0.0 102835
20:00−17e22955 0.0 102917
23 january, sun
sun2323:00−18e229779 0.0 103010
02:00−17e229590 0.0 103136
05:00−19ene229796 0.0 103222
08:00−20ene229972 0.0 103318
11:00−16ene2393100 0.0 103474
14:00−11e3590100 0.0 1034170
17:00−12e2294100 0.0 103420
20:00−14ene2394100 0.0 103540